[[{"header":{"parameterUnit":"m.s-1","parameterCategory":2,"la1":30.2991,"la2":30.254,"lo1":-89.0895,"lo2":-89.0444,"dy":0.0017,"dx":0.0017,"nx":28,"ny":28,"refTime":"2024-12-04T09:00:00:Z","depth":"0","parameterNumber":2,"parameterNumberName":"U-component_of_CURRENTS"},"data":[0,0,0,0,0,0,0,0,0,0,0,0,0,0,0,0,0,0,0,0,0,0,0,0,0,0,0,0,0,0,0,0,0,0,0,0,0,0,0,0,0,0,0,0,0,0,0,0,0,0,0,0,0,0,0,0,0,0,-0.2313,-0.2313,0,-0.2346,-0.2346,-0.2346,-0.2314,-0.2313,-0.2312,-0.2311,-0.2272,-0.2272,-0.2272,0,0,0,0,0,0,0,0,0,0,0,0,0,-0.2235,-0.2236,-0.2313,-0.2313,-0.2314,-0.2346,-0.2346,-0.2346,-0.2315,-0.2313,-0.2312,-0.2311,-0.2272,-0.2272,-0.2272,0,0,0,0,0,0,0,0,0,0,0,0,0,-0.2266,-0.2237,-0.2313,-0.2304,-0.2304,-0.2346,-0.2346,-0.2346,-0.2315,-0.2313,-0.2312,-0.231,-0.2272,-0.2272,-0.2272,-0.2303,0,0,-0.2272,-0.2272,0,0,0,0,0,0,0,0,-0.2265,-0.2269,-0.2305,-0.2305,-0.2304,-0.2327,-0.2305,-0.2329,-0.2315,-0.2308,-0.2311,-0.2309,-0.2287,-0.2285,-0.2293,-0.2301,-0.23,-0.2272,-0.2272,-0.2272,-0.2272,0,0,0,0,0,0,0,-0.2262,-0.2267,-0.2323,-0.2305,-0.2305,-0.2303,-0.2305,-0.2309,-0.2302,-0.2309,-0.2307,-0.2315,-0.2285,-0.2293,-0.2291,-0.2299,-0.2272,-0.2272,-0.2272,-0.2272,-0.2313,-0.2314,0,0,0,0,0,0,-0.2265,-0.2266,-0.2322,-0.2325,-0.2283,-0.2306,-0.2308,-0.2319,-0.2304,-0.2302,-0.2316,-0.2313,-0.2294,-0.2291,-0.229,-0.2311,-0.2272,-0.2272,-0.2272,-0.2312,-0.2313,-0.2315,0,0,0,0,0,0,-0.2263,-0.227,-0.2321,-0.2297,-0.2304,-0.2309,-0.2321,-0.2321,-0.2321,-0.2311,-0.2306,-0.2316,-0.2292,-0.229,-0.2296,-0.2309,-0.2272,-0.2272,-0.2311,-0.2312,-0.2314,-0.2362,0,0,0,0,0,0,-0.2261,-0.2269,-0.2272,-0.2298,-0.2306,-0.2347,-0.2323,-0.2322,-0.233,-0.2326,-0.231,-0.2305,-0.2291,-0.2296,-0.2295,-0.2308,-0.2272,-0.2309,-0.2311,-0.2313,-0.2359,-0.2365,-0.2371,0,0,0,0,0,-0.2258,-0.2272,-0.2272,-0.2279,-0.2312,-0.2349,-0.2352,-0.2348,-0.2331,-0.234,-0.2329,-0.2305,-0.2309,-0.2297,-0.2296,-0.2309,-0.2308,-0.2311,-0.2313,-0.2357,-0.2364,-0.2371,0,0,0,0,0,0,-0.2236,-0.2271,-0.2271,-0.2293,-0.232,-0.2344,-0.235,-0.2352,-0.2352,-0.2342,-0.2323,-0.2319,-0.233,-0.2318,-0.2305,-0.2329,-0.2304,-0.2306,-0.2337,-0.2344,-0.2349,-0.2346,-0.2271,0,0,0,0,0,-0.2237,-0.2252,-0.2289,-0.2303,-0.2317,-0.2334,-0.2345,-0.235,-0.2358,-0.2356,-0.2349,-0.2341,-0.2344,-0.2341,-0.2342,-0.2358,-0.2328,-0.2365,-0.2371,-0.2376,-0.2374,-0.2353,-0.2356,-0.2323,-0.2323,-0.2323,0,0,-0.2229,-0.2252,-0.2258,-0.2299,-0.2314,-0.2347,-0.2335,-0.2359,-0.2381,-0.2353,-0.2368,-0.2362,-0.2354,-0.2371,-0.2374,-0.2359,-0.2369,-0.2379,-0.2383,-0.2378,-0.2356,-0.2359,-0.2361,-0.2325,-0.2325,-0.2324,0,0,-0.2234,-0.2247,-0.2266,-0.2296,-0.2331,-0.235,-0.2359,-0.239,-0.2393,-0.2419,-0.2402,-0.2405,-0.2412,-0.241,-0.2408,-0.2448,-0.2403,-0.2449,-0.2472,-0.2452,-0.2454,-0.2455,-0.2415,-0.2412,-0.2448,-0.2448,-0.2449,0,-0.2222,-0.2253,-0.2277,-0.2312,-0.2333,-0.2353,-0.2383,-0.2406,-0.2432,-0.2437,-0.2426,-0.2437,-0.243,-0.2446,-0.2461,-0.246,-0.2433,-0.2445,-0.2458,-0.2459,-0.2459,-0.2418,-0.2414,-0.2451,-0.2451,-0.2451,-0.245,0,-0.2248,-0.2274,-0.229,-0.2338,-0.2368,-0.2396,-0.2438,-0.246,-0.2465,-0.2479,-0.2494,-0.2492,-0.249,-0.2497,-0.2492,-0.2501,-0.2474,-0.2469,-0.2437,-0.2465,-0.242,-0.2415,-0.2455,-0.2454,-0.2453,-0.2452,0,0,-0.2209,-0.2291,-0.2292,-0.2318,-0.2382,-0.2407,-0.2454,-0.2493,-0.2506,-0.2529,-0.2536,-0.2557,-0.2544,-0.2543,-0.2536,-0.2526,-0.2511,-0.2503,-0.25,-0.2456,-0.2448,-0.2338,-0.2322,-0.2505,-0.2504,-0.2504,-0.2411,0,-0.2213,-0.2274,-0.2317,-0.2366,-0.2398,-0.2442,-0.248,-0.2519,-0.2539,-0.2555,-0.2558,-0.2564,-0.2566,-0.2559,-0.2555,-0.2524,-0.2502,-0.2535,-0.2433,-0.2429,-0.2322,-0.2314,-0.2213,-0.2114,-0.2406,-0.2406,-0.2405,0,-0.2216,-0.2257,-0.2307,-0.2376,-0.2392,-0.2426,-0.2473,-0.2514,-0.2553,-0.2565,-0.2577,-0.2577,-0.2578,-0.2568,-0.2525,-0.2545,-0.25,-0.2471,-0.2467,-0.2342,-0.231,-0.2135,-0.2094,-0.2089,-0.2397,-0.2398,-0.2399,0,-0.2162,-0.2244,-0.2276,-0.2303,-0.239,-0.241,-0.2449,-0.2503,-0.2528,-0.2562,-0.2568,-0.2576,-0.2561,-0.2531,-0.248,-0.2501,-0.2408,-0.2426,-0.2282,-0.2273,-0.2154,-0.2134,-0.2087,-0.2381,-0.2381,-0.2381,-0.2381,0,-0.2143,-0.2166,-0.2251,-0.2269,-0.2298,-0.2374,-0.2402,-0.2445,-0.2496,-0.251,-0.2557,-0.2546,-0.255,-0.2504,-0.2467,-0.2342,-0.2391,-0.2271,-0.2239,-0.2166,-0.215,-0.2113,-0.2149,-0.2378,-0.2378,-0.2379,-0.238,0,-0.2072,-0.2133,-0.2171,-0.2252,-0.2273,-0.2289,-0.2367,-0.2387,-0.2451,-0.2467,-0.2475,-0.2508,-0.2436,-0.2411,-0.234,-0.2296,-0.2162,-0.2151,-0.2053,-0.2009,-0.1871,-0.1913,-0.1823,-0.1773,-0.198,-0.1977,-0.1974,0,-0.2039,-0.2053,-0.213,-0.2142,-0.2172,-0.2216,-0.2243,-0.2337,-0.2365,-0.2424,-0.2415,-0.2378,-0.2302,-0.216,-0.2075,-0.1957,-0.2,-0.1818,-0.1843,-0.1829,-0.1855,-0.1904,-0.1875,-0.1707,-0.1702,-0.1698,-0.1695,0,-0.1961,-0.1987,-0.2014,-0.2043,-0.207,-0.2107,-0.2156,-0.2175,-0.2274,-0.228,-0.2249,-0.219,-0.2064,-0.1887,-0.1758,-0.1695,-0.1779,-0.1732,-0.1751,-0.1653,-0.1672,-0.1618,-0.1803,-0.166,-0.1664,-0.1666,-0.1668,-0.1669,-0.1881,-0.1876,-0.1909,-0.1921,-0.1952,-0.1965,-0.195,-0.2006,-0.2008,-0.1986,-0.2026,-0.1878,-0.178,-0.1561,-0.1497,-0.1386,-0.148,-0.1371,-0.1426,-0.148,-0.1421,-0.151,-0.1314,-0.1315,-0.1317,-0.1318,-0.1319,0,-0.177,-0.1774,-0.1785,-0.1794,-0.177,-0.1833,-0.1859,-0.181,-0.1749,-0.1734,-0.1664,-0.149,-0.1337,-0.1277,-0.1178,-0.1122,-0.1134,-0.1125,-0.1203,-0.1188,-0.1277,-0.1253,-0.0994,-0.0994,-0.0994,-0.0994,-0.0994,-0.0994,-0.1713,-0.1675,-0.1679,-0.1598,-0.1598,-0.1524,-0.1504,-0.1443,-0.1394,-0.1222,-0.111,-0.1042,-0.1053,-0.1158,-0.1097,-0.1045,-0.1068,-0.102,-0.1078,-0.1185,-0.1214,-0.1242,-0.1228,-0.0968,-0.0968,-0.0938,-0.0938,-0.0938]},{"header":{"parameterUnit":"m.s-1","parameterCategory":2,"la1":30.2991,"la2":30.254,"lo1":-89.0895,"lo2":-89.0444,"dy":0.0017,"dx":0.0017,"nx":28,"ny":28,"refTime":"2024-12-04T09:00:00:Z","depth":"0","parameterNumber":3,"parameterNumberName":"V-component_of_CURRENTS"},"data":[0,0,0,0,0,0,0,0,0,0,0,0,0,0,0,0,0,0,0,0,0,0,0,0,0,0,0,0,0,0,0,0,0,0,0,0,0,0,0,0,0,0,0,0,0,0,0,0,0,0,0,0,0,0,0,0,0,0,-0.0179,-0.0178,0,-0.0097,-0.0096,-0.0095,-0.0033,-0.0033,-0.0033,-0.0032,0.0085,0.0088,0.0091,0,0,0,0,0,0,0,0,0,0,0,0,0,-0.0228,-0.0228,-0.0179,-0.0178,-0.0177,-0.0097,-0.0096,-0.0095,-0.0033,-0.0033,-0.0032,-0.0032,0.0084,0.0088,0.0091,0,0,0,0,0,0,0,0,0,0,0,0,0,-0.0182,-0.0228,-0.0179,-0.0138,-0.0134,-0.0098,-0.0096,-0.0094,-0.0034,-0.0033,-0.0032,-0.0032,0.0083,0.0087,0.0091,0.0104,0,0,0.0104,0.0106,0,0,0,0,0,0,0,0,-0.0184,-0.018,-0.0145,-0.0141,-0.0136,-0.0076,-0.007,-0.0027,-0.0034,-0.007,-0.0032,-0.0031,0.0033,0.0041,0.0057,0.0109,0.0115,0.0104,0.0107,0.0109,0.011,0,0,0,0,0,0,0,-0.0188,-0.0182,-0.0145,-0.0144,-0.0138,-0.0106,-0.0099,-0.0062,-0.0021,-0.0067,-0.0062,-0.0056,0.0036,0.0053,0.006,0.0116,0.0104,0.0108,0.011,0.0112,0.0208,0.0208,0,0,0,0,0,0,-0.0204,-0.0186,-0.0147,-0.0143,-0.0161,-0.0106,-0.0098,-0.0095,-0.0022,-0.0011,-0.0057,-0.0053,0.0046,0.0055,0.0065,0.0091,0.0109,0.0112,0.0115,0.0208,0.0208,0.0208,0,0,0,0,0,0,-0.0206,-0.0202,-0.0151,-0.0163,-0.0155,-0.0106,-0.0103,-0.0093,-0.0077,-0.0015,-0.0003,-0.005,0.0047,0.0059,0.0098,0.0096,0.0114,0.0118,0.0208,0.0208,0.0208,0.014,0,0,0,0,0,0,-0.0208,-0.0203,-0.0208,-0.0165,-0.0155,-0.0139,-0.0103,-0.0092,-0.0074,-0.0069,-0.0005,0.0006,0.0048,0.0091,0.0102,0.0102,0.0121,0.0208,0.0208,0.0208,0.0142,0.0138,0.0134,0,0,0,0,0,-0.021,-0.0225,-0.0209,-0.0204,-0.0163,-0.014,-0.0132,-0.0093,-0.0075,-0.0074,-0.0026,0.0004,0.01,0.0094,0.0107,0.0108,0.0208,0.0208,0.0208,0.0144,0.0138,0.0134,0,0,0,0,0,0,-0.0249,-0.0219,-0.0201,-0.0205,-0.0178,-0.013,-0.0128,-0.01,-0.0062,-0.0056,0.0005,0.0019,0.0052,0.0089,0.0082,0.0138,0.0159,0.0162,0.0106,0.0102,0.0098,0.0083,0.0125,0,0,0,0,0,-0.0262,-0.0263,-0.0226,-0.0229,-0.022,-0.0174,-0.0161,-0.0135,-0.0096,-0.0078,-0.0032,0.0019,0.0063,0.0088,0.0129,0.0158,0.0206,0.0168,0.0164,0.0161,0.0158,0.023,0.0233,0.0209,0.0209,0.0209,0,0,-0.0277,-0.0261,-0.0261,-0.0238,-0.0213,-0.0207,-0.0164,-0.0151,-0.0139,-0.0072,-0.0045,0.0002,0.0066,0.01,0.0118,0.0131,0.0192,0.0161,0.0157,0.0156,0.0231,0.0233,0.0235,0.0209,0.0209,0.0209,0,0,-0.0315,-0.0296,-0.0312,-0.0295,-0.0268,-0.0237,-0.0237,-0.0194,-0.0168,-0.0138,-0.0083,-0.0037,0.0023,0.0075,0.0107,0.0106,0.0165,0.0117,0.009,0.016,0.0162,0.0165,0.0223,0.0232,0.0119,0.0119,0.0119,0,-0.0336,-0.0348,-0.0313,-0.0322,-0.0312,-0.0256,-0.0266,-0.0233,-0.0181,-0.0155,-0.014,-0.0033,0.0014,0.0074,0.0072,0.0097,0.0142,0.01,0.0154,0.0158,0.0162,0.0221,0.0232,0.0116,0.0116,0.0116,0.0117,0,-0.0384,-0.039,-0.0399,-0.0389,-0.0373,-0.0373,-0.0325,-0.03,-0.0262,-0.0218,-0.0158,-0.0087,-0.002,0.0002,0.0035,0.0088,0.0112,0.0136,0.0162,0.016,0.0223,0.0235,0.0111,0.0112,0.0113,0.0114,0,0,-0.0433,-0.0434,-0.0435,-0.0441,-0.0408,-0.0399,-0.0378,-0.0335,-0.0309,-0.0251,-0.0208,-0.0134,-0.0086,-0.0046,0.0011,0.0069,0.0131,0.0105,0.011,0.0155,0.028,0.0317,0.0334,0.0165,0.0166,0.0168,0.0311,0,-0.0478,-0.052,-0.0497,-0.0517,-0.0531,-0.0472,-0.0455,-0.0405,-0.0345,-0.0288,-0.0198,-0.0141,-0.0105,-0.007,-0.0008,0.0102,0.016,0.009,0.0283,0.0288,0.0316,0.0349,0.0398,0.0531,0.0323,0.0325,0.0326,0,-0.0528,-0.0549,-0.059,-0.058,-0.0578,-0.0576,-0.0523,-0.0498,-0.0401,-0.0352,-0.0272,-0.0195,-0.0096,-0.007,0.0111,0.0064,0.0158,0.024,0.0248,0.0315,0.0348,0.0503,0.0562,0.07,0.0345,0.0344,0.0342,0,-0.0585,-0.0604,-0.064,-0.064,-0.0624,-0.062,-0.0598,-0.0521,-0.0489,-0.0386,-0.0342,-0.0216,-0.0135,-0.001,0.0156,0.0137,0.036,0.0362,0.0484,0.0488,0.0585,0.0594,0.0796,0.0483,0.0483,0.0482,0.0482,0,-0.0642,-0.0665,-0.0672,-0.0692,-0.0718,-0.0679,-0.0671,-0.0625,-0.0547,-0.0492,-0.0382,-0.0295,-0.0115,0.0037,0.0162,0.0371,0.0373,0.049,0.0534,0.0561,0.0566,0.0735,0.0764,0.0488,0.0487,0.0486,0.0485,0,-0.0698,-0.0705,-0.0745,-0.075,-0.0751,-0.0768,-0.0737,-0.0719,-0.0638,-0.0559,-0.0527,-0.0336,-0.0125,0.0056,0.0295,0.0396,0.0667,0.0644,0.0656,0.0699,0.0915,0.0936,0.1152,0.1232,0.0797,0.0798,0.08,0,-0.0731,-0.0764,-0.0798,-0.0826,-0.0832,-0.0844,-0.0846,-0.0779,-0.0743,-0.0567,-0.0524,-0.0303,-0.0111,0.0244,0.0463,0.0701,0.0785,0.0866,0.0834,0.0949,0.1007,0.1009,0.106,0.0939,0.0942,0.0944,0.0946,0,-0.079,-0.0804,-0.0837,-0.0903,-0.0925,-0.0938,-0.0925,-0.0908,-0.0793,-0.0679,-0.0473,-0.03,0.0055,0.0382,0.0672,0.0807,0.0962,0.0915,0.1054,0.1151,0.1152,0.1243,0.0807,0.0964,0.0963,0.0961,0.096,0.0959,-0.0822,-0.0865,-0.0913,-0.0968,-0.0998,-0.1009,-0.0996,-0.0923,-0.0821,-0.0581,-0.0433,-0.0071,0.0312,0.0749,0.089,0.1202,0.1135,0.1297,0.1318,0.1315,0.138,0.0971,0.1159,0.1158,0.1158,0.1157,0.1156,0,-0.0857,-0.0906,-0.0971,-0.1028,-0.1065,-0.1062,-0.1024,-0.0938,-0.0774,-0.0477,-0.0221,0.034,0.0728,0.1064,0.1447,0.1605,0.1621,0.1684,0.1719,0.1755,0.1436,0.143,0.1663,0.1663,0.1663,0.1663,0.1663,0.1663,-0.0876,-0.0948,-0.0986,-0.1064,-0.1098,-0.1089,-0.1052,-0.0857,-0.0616,-0.0111,0.0306,0.0612,0.1044,0.1578,0.1945,0.1974,0.2109,0.2084,0.2147,0.194,0.1905,0.1872,0.1879,0.2202,0.2202,0.2478,0.2481,0.2483]}],[{"header":{"parameterUnit":"m.s-1","parameterCategory":2,"la1":30.2991,"la2":30.254,"lo1":-89.0895,"lo2":-89.0444,"dy":0.0017,"dx":0.0017,"nx":28,"ny":28,"refTime":"2024-12-04T09:00:00:Z","depth":"2","parameterNumber":2,"parameterNumberName":"U-component_of_CURRENTS"},"data":[0,0,0,0,0,0,0,0,0,0,0,0,0,0,0,0,0,0,0,0,0,0,0,0,0,0,0,0,0,0,0,0,0,0,0,0,0,0,0,0,0,0,0,0,0,0,0,0,0,0,0,0,0,0,0,0,0,0,-0.2204,-0.2205,0,-0.2234,-0.2235,-0.2235,-0.2208,-0.2207,-0.2206,-0.2205,-0.2173,-0.2173,-0.2173,0,0,0,0,0,0,0,0,0,0,0,0,0,-0.2133,-0.2134,-0.2204,-0.2205,-0.2205,-0.2234,-0.2235,-0.2235,-0.2208,-0.2207,-0.2206,-0.2205,-0.2173,-0.2173,-0.2173,0,0,0,0,0,0,0,0,0,0,0,0,0,-0.2161,-0.2134,-0.2204,-0.2197,-0.2197,-0.2234,-0.2235,-0.2235,-0.2208,-0.2207,-0.2205,-0.2204,-0.2173,-0.2173,-0.2173,-0.2199,0,0,-0.2172,-0.2172,0,0,0,0,0,0,0,0,-0.216,-0.2163,-0.2198,-0.2198,-0.2198,-0.2218,-0.2198,-0.222,-0.2208,-0.2201,-0.2205,-0.2204,-0.2184,-0.2183,-0.219,-0.2197,-0.2196,-0.2172,-0.2172,-0.2172,-0.2172,0,0,0,0,0,0,0,-0.2158,-0.2162,-0.2214,-0.2198,-0.2198,-0.2196,-0.2198,-0.2202,-0.2197,-0.2202,-0.2201,-0.2208,-0.2183,-0.219,-0.2188,-0.2195,-0.2172,-0.2172,-0.2172,-0.2172,-0.2212,-0.2213,0,0,0,0,0,0,-0.216,-0.2161,-0.2213,-0.2215,-0.2178,-0.2198,-0.2201,-0.2211,-0.2198,-0.2196,-0.2209,-0.2207,-0.2191,-0.2189,-0.2187,-0.2211,-0.2172,-0.2172,-0.2172,-0.2211,-0.2213,-0.2214,0,0,0,0,0,0,-0.2158,-0.2164,-0.2212,-0.219,-0.2196,-0.2201,-0.2213,-0.2212,-0.2214,-0.2205,-0.2201,-0.2211,-0.2189,-0.2187,-0.2195,-0.2209,-0.2172,-0.2172,-0.221,-0.2212,-0.2213,-0.2262,0,0,0,0,0,0,-0.2156,-0.2164,-0.2168,-0.219,-0.2197,-0.2236,-0.2214,-0.2214,-0.2222,-0.2219,-0.2206,-0.2202,-0.2188,-0.2195,-0.2195,-0.2209,-0.2172,-0.2209,-0.2211,-0.2213,-0.2259,-0.2266,-0.2271,0,0,0,0,0,-0.2153,-0.2167,-0.2168,-0.2174,-0.2204,-0.2238,-0.2241,-0.2238,-0.2224,-0.2233,-0.2224,-0.2202,-0.2207,-0.2196,-0.2195,-0.221,-0.2208,-0.221,-0.2212,-0.2257,-0.2264,-0.2271,0,0,0,0,0,0,-0.2136,-0.2167,-0.2168,-0.2189,-0.2213,-0.2234,-0.2241,-0.2243,-0.2245,-0.2236,-0.2219,-0.2216,-0.2228,-0.2216,-0.2204,-0.2228,-0.2203,-0.2205,-0.2237,-0.2244,-0.2249,-0.2247,-0.2172,0,0,0,0,0,-0.2137,-0.2152,-0.2184,-0.2199,-0.2212,-0.2227,-0.2238,-0.2243,-0.2251,-0.225,-0.2244,-0.2237,-0.2241,-0.2239,-0.224,-0.2256,-0.2228,-0.2264,-0.227,-0.2274,-0.2273,-0.2254,-0.2257,-0.2222,-0.2222,-0.2222,0,0,-0.2131,-0.2152,-0.2158,-0.2196,-0.221,-0.224,-0.2229,-0.2252,-0.2273,-0.2247,-0.2264,-0.2259,-0.2251,-0.2268,-0.2271,-0.2257,-0.2269,-0.2278,-0.2282,-0.2278,-0.2257,-0.226,-0.2263,-0.2224,-0.2223,-0.2223,0,0,-0.2137,-0.215,-0.2169,-0.2196,-0.2229,-0.2246,-0.2255,-0.2283,-0.2288,-0.2313,-0.2298,-0.2302,-0.2309,-0.2307,-0.2305,-0.2344,-0.2302,-0.2346,-0.237,-0.2352,-0.2354,-0.2356,-0.2318,-0.2316,-0.2346,-0.2346,-0.2346,0,-0.2129,-0.2158,-0.2179,-0.2211,-0.2231,-0.225,-0.2279,-0.23,-0.2326,-0.2331,-0.2321,-0.2333,-0.2327,-0.2342,-0.2358,-0.2356,-0.2331,-0.2344,-0.2358,-0.2359,-0.236,-0.2321,-0.2318,-0.2349,-0.2348,-0.2348,-0.2348,0,-0.2154,-0.2179,-0.2194,-0.2239,-0.2267,-0.2293,-0.2332,-0.2354,-0.236,-0.2374,-0.239,-0.2388,-0.2387,-0.2394,-0.2389,-0.24,-0.2375,-0.2368,-0.2338,-0.2366,-0.2323,-0.2319,-0.2352,-0.2352,-0.2351,-0.235,0,0,-0.212,-0.2196,-0.2198,-0.2221,-0.2281,-0.2304,-0.2349,-0.2386,-0.2401,-0.2424,-0.2433,-0.2453,-0.2442,-0.2441,-0.2434,-0.2426,-0.2414,-0.2405,-0.2402,-0.2361,-0.2358,-0.2253,-0.2238,-0.2409,-0.2409,-0.2409,-0.2322,0,-0.2126,-0.2182,-0.2222,-0.2269,-0.2298,-0.2339,-0.2376,-0.2413,-0.2433,-0.245,-0.2454,-0.2461,-0.2464,-0.2459,-0.2456,-0.2426,-0.2408,-0.2437,-0.2341,-0.2337,-0.2236,-0.2232,-0.208,-0.1982,-0.2318,-0.2317,-0.2316,0,-0.213,-0.2167,-0.2215,-0.2279,-0.2294,-0.2326,-0.2373,-0.2411,-0.245,-0.2463,-0.2477,-0.2477,-0.248,-0.247,-0.2431,-0.2449,-0.2408,-0.2381,-0.2377,-0.2258,-0.2225,-0.201,-0.1962,-0.2309,-0.231,-0.231,-0.2311,0,-0.208,-0.2157,-0.2188,-0.2213,-0.2293,-0.2314,-0.2351,-0.2403,-0.2427,-0.2463,-0.247,-0.248,-0.2466,-0.2439,-0.2391,-0.2411,-0.2325,-0.234,-0.2204,-0.2196,-0.2035,-0.2012,-0.2299,-0.2299,-0.23,-0.23,-0.23,0,-0.2063,-0.2085,-0.2165,-0.2181,-0.221,-0.2281,-0.2309,-0.2351,-0.2401,-0.2414,-0.2463,-0.2453,-0.2458,-0.2416,-0.2381,-0.2264,-0.2311,-0.2195,-0.2164,-0.2047,-0.2027,-0.2291,-0.2291,-0.2297,-0.2297,-0.2298,-0.2298,0,-0.1996,-0.2055,-0.209,-0.2167,-0.2186,-0.2203,-0.2277,-0.2296,-0.2359,-0.2374,-0.2384,-0.2419,-0.2354,-0.2331,-0.2265,-0.2222,-0.214,-0.2085,-0.1937,-0.1889,-0.2028,-0.2032,-0.193,-0.1926,-0.1922,-0.1919,-0.1916,0,-0.1965,-0.1978,-0.2051,-0.2062,-0.2092,-0.2134,-0.2158,-0.225,-0.2274,-0.2334,-0.2324,-0.2295,-0.2223,-0.2092,-0.2006,-0.1893,-0.1997,-0.1714,-0.1727,-0.2009,-0.1989,-0.1999,-0.2008,-0.1533,-0.1527,-0.1523,-0.1519,0,-0.1891,-0.1916,-0.1941,-0.1968,-0.1993,-0.2026,-0.2072,-0.2087,-0.2181,-0.2188,-0.2161,-0.2107,-0.1989,-0.1791,-0.1669,-0.1604,-0.1726,-0.1616,-0.1932,-0.1653,-0.1628,-0.1611,-0.1634,-0.1479,-0.1483,-0.1486,-0.1488,-0.1489,-0.1815,-0.1809,-0.1839,-0.1849,-0.1879,-0.1886,-0.1868,-0.1917,-0.1916,-0.1887,-0.1934,-0.1775,-0.1739,-0.1429,-0.1344,-0.1285,-0.141,-0.1373,-0.139,-0.1411,-0.1384,-0.1353,-0.1146,-0.1148,-0.115,-0.1152,-0.1153,0,-0.1707,-0.1711,-0.1719,-0.1724,-0.1696,-0.1759,-0.1778,-0.1716,-0.165,-0.1634,-0.1563,-0.1312,-0.1165,-0.1127,-0.0959,-0.0941,-0.0969,-0.092,-0.0964,-0.1003,-0.1038,-0.0996,-0.0654,-0.0652,-0.0651,-0.065,0,0,-0.1651,-0.1611,-0.1613,-0.1526,-0.1527,-0.1445,-0.1422,-0.1344,-0.1289,-0.1134,-0.1033,-0.1073,-0.1059,-0.0841,-0.0812,-0.0699,-0.0849,-0.0664,-0.1061,-0.1149,-0.1183,-0.1287,-0.1264,0,0,0,0,0]},{"header":{"parameterUnit":"m.s-1","parameterCategory":2,"la1":30.2991,"la2":30.254,"lo1":-89.0895,"lo2":-89.0444,"dy":0.0017,"dx":0.0017,"nx":28,"ny":28,"refTime":"2024-12-04T09:00:00:Z","depth":"2","parameterNumber":3,"parameterNumberName":"V-component_of_CURRENTS"},"data":[0,0,0,0,0,0,0,0,0,0,0,0,0,0,0,0,0,0,0,0,0,0,0,0,0,0,0,0,0,0,0,0,0,0,0,0,0,0,0,0,0,0,0,0,0,0,0,0,0,0,0,0,0,0,0,0,0,0,-0.0259,-0.0258,0,-0.0182,-0.0181,-0.018,-0.0123,-0.0123,-0.0123,-0.0122,-0.0014,-0.0011,-0.0009,0,0,0,0,0,0,0,0,0,0,0,0,0,-0.0307,-0.0307,-0.0259,-0.0258,-0.0257,-0.0183,-0.0181,-0.018,-0.0123,-0.0123,-0.0123,-0.0122,-0.0014,-0.0011,-0.0008,0,0,0,0,0,0,0,0,0,0,0,0,0,-0.0263,-0.0307,-0.0259,-0.0221,-0.0217,-0.0183,-0.0181,-0.018,-0.0124,-0.0123,-0.0122,-0.0122,-0.0015,-0.0012,-0.0008,0.0004,0,0,0.0004,0.0005,0,0,0,0,0,0,0,0,-0.0266,-0.0261,-0.0227,-0.0224,-0.0219,-0.0163,-0.0158,-0.0117,-0.0124,-0.0158,-0.0122,-0.0122,-0.0062,-0.0054,-0.004,0.0009,0.0014,0.0004,0.0006,0.0008,0.0009,0,0,0,0,0,0,0,-0.0269,-0.0264,-0.0227,-0.0227,-0.0221,-0.0191,-0.0184,-0.015,-0.0112,-0.0155,-0.0151,-0.0144,-0.0059,-0.0044,-0.0037,0.0015,0.0004,0.0007,0.001,0.0011,0.0104,0.0104,0,0,0,0,0,0,-0.0284,-0.0267,-0.023,-0.0225,-0.0243,-0.0191,-0.0183,-0.018,-0.0113,-0.0103,-0.0145,-0.0142,-0.005,-0.0041,-0.0033,-0.0005,0.0008,0.0012,0.0014,0.0104,0.0104,0.0105,0,0,0,0,0,0,-0.0286,-0.0282,-0.0233,-0.0245,-0.0237,-0.0191,-0.0188,-0.0179,-0.0163,-0.0107,-0.0095,-0.0138,-0.0049,-0.0038,-0.0001,-0.0,0.0013,0.0017,0.0104,0.0104,0.0104,0.0045,0,0,0,0,0,0,-0.0287,-0.0283,-0.0287,-0.0246,-0.0237,-0.0221,-0.0188,-0.0178,-0.0161,-0.0156,-0.0097,-0.0086,-0.0048,-0.0007,0.0003,0.0005,0.002,0.0104,0.0104,0.0104,0.0047,0.0043,0.004,0,0,0,0,0,-0.0289,-0.0302,-0.0288,-0.0284,-0.0244,-0.0221,-0.0214,-0.0178,-0.0161,-0.016,-0.0115,-0.0088,0.0003,-0.0004,0.0008,0.0011,0.0103,0.0104,0.0104,0.0048,0.0044,0.004,0,0,0,0,0,0,-0.0326,-0.0297,-0.028,-0.0283,-0.0257,-0.0212,-0.0209,-0.0184,-0.0148,-0.0142,-0.0087,-0.0073,-0.0041,-0.0007,-0.0015,0.004,0.0058,0.0061,0.0012,0.0008,0.0005,-0.001,0.0023,0,0,0,0,0,-0.0337,-0.0338,-0.0303,-0.0305,-0.0295,-0.0253,-0.024,-0.0216,-0.0179,-0.0162,-0.0119,-0.0072,-0.003,-0.0006,0.0032,0.0061,0.0103,0.0072,0.0069,0.0065,0.0062,0.013,0.0132,0.0106,0.0106,0.0106,0,0,-0.0351,-0.0336,-0.0336,-0.0313,-0.0289,-0.0283,-0.0243,-0.023,-0.0218,-0.0156,-0.013,-0.0085,-0.0026,0.0007,0.0025,0.0036,0.0095,0.0066,0.0063,0.0061,0.013,0.0133,0.0135,0.0106,0.0106,0.0106,0,0,-0.0386,-0.0368,-0.0382,-0.0365,-0.0339,-0.031,-0.0309,-0.0268,-0.0243,-0.0214,-0.0163,-0.0118,-0.0061,-0.0013,0.0018,0.0021,0.0072,0.0031,0.0007,0.0073,0.0075,0.0078,0.0131,0.0139,0.0033,0.0033,0.0033,0,-0.0406,-0.0416,-0.0382,-0.039,-0.0381,-0.0327,-0.0336,-0.0304,-0.0254,-0.023,-0.0215,-0.0114,-0.0068,-0.0011,-0.0011,0.0014,0.0054,0.0014,0.0068,0.0071,0.0075,0.0129,0.0139,0.003,0.0031,0.0031,0.0031,0,-0.0449,-0.0455,-0.0462,-0.0452,-0.0436,-0.0436,-0.0389,-0.0365,-0.0328,-0.0287,-0.0229,-0.016,-0.0097,-0.0075,-0.0043,0.0009,0.0029,0.0051,0.0074,0.0074,0.0131,0.0142,0.0026,0.0027,0.0028,0.0029,0,0,-0.0495,-0.0495,-0.0496,-0.0502,-0.047,-0.0461,-0.044,-0.0398,-0.0375,-0.0317,-0.0278,-0.0202,-0.0157,-0.0119,-0.0064,-0.0008,0.0052,0.0025,0.003,0.0069,0.0189,0.022,0.0235,0.0084,0.0085,0.0087,0.0216,0,-0.0538,-0.0577,-0.0555,-0.0574,-0.0587,-0.0531,-0.0514,-0.0466,-0.0409,-0.0356,-0.0268,-0.0214,-0.0174,-0.0143,-0.0081,0.0023,0.0079,0.0014,0.019,0.0195,0.0216,0.0249,0.0192,0.0303,0.0227,0.0229,0.023,0,-0.0586,-0.0605,-0.0645,-0.0637,-0.0636,-0.0633,-0.0585,-0.056,-0.0467,-0.0422,-0.0344,-0.027,-0.0174,-0.0145,0.0027,-0.0016,0.0074,0.0152,0.016,0.0216,0.0246,0.0293,0.0327,0.0249,0.0248,0.0246,0.0245,0,-0.0642,-0.066,-0.0696,-0.0696,-0.0681,-0.0678,-0.0657,-0.0584,-0.0555,-0.0457,-0.0418,-0.0295,-0.0219,-0.0097,0.0064,0.0048,0.0257,0.0261,0.0374,0.0377,0.0378,0.0378,0.0378,0.0377,0.0377,0.0377,0.0376,0,-0.0698,-0.0721,-0.0728,-0.0748,-0.0776,-0.0737,-0.0733,-0.0689,-0.0616,-0.0568,-0.0459,-0.0382,-0.0202,-0.0059,0.0065,0.0262,0.0265,0.0379,0.0419,0.0355,0.0352,0.0342,0.0336,0.0382,0.0381,0.038,0.0379,0,-0.0755,-0.076,-0.0801,-0.0806,-0.0809,-0.0827,-0.0799,-0.0785,-0.0709,-0.064,-0.0611,-0.0431,-0.0231,-0.0052,0.0178,0.0277,0.0449,0.0514,0.0422,0.0449,0.052,0.0509,0.065,0.0652,0.0654,0.0655,0.0657,0,-0.0788,-0.0819,-0.0855,-0.0883,-0.089,-0.0904,-0.0909,-0.0845,-0.0816,-0.0656,-0.0622,-0.0414,-0.0238,0.0101,0.0303,0.0532,0.0531,0.0605,0.0567,0.0526,0.0551,0.0538,0.0525,0.0544,0.0544,0.0545,0.0545,0,-0.0848,-0.0861,-0.0894,-0.0961,-0.0986,-0.1002,-0.0995,-0.0984,-0.0879,-0.0779,-0.0596,-0.0439,-0.0114,0.0145,0.0424,0.0543,0.056,0.0619,0.0626,0.0479,0.0436,0.0457,0.0447,0.0547,0.0547,0.0547,0.0547,0.0547,-0.0881,-0.0925,-0.0973,-0.1029,-0.1062,-0.108,-0.1074,-0.1017,-0.0932,-0.0747,-0.0595,-0.0325,-0.0111,0.0304,0.048,0.0633,0.0641,0.0663,0.0658,0.0653,0.0614,0.0576,0.0706,0.0706,0.0707,0.0707,0.0708,0,-0.092,-0.0968,-0.1034,-0.1094,-0.1136,-0.1132,-0.1109,-0.1054,-0.0923,-0.0715,-0.0499,-0.0243,0.0052,0.0276,0.0517,0.0665,0.063,0.0681,0.0593,0.059,0.0588,0.0541,0.0616,0.0616,0.0617,0.0617,0,0,-0.0941,-0.1014,-0.1052,-0.1135,-0.1172,-0.118,-0.1153,-0.1027,-0.0865,-0.0646,-0.0437,-0.0175,0.0086,0.0231,0.0398,0.0521,0.0521,0.0528,0.0584,0.0457,0.0453,0.0559,0.0482,0,0,0,0,0]}],[{"header":{"parameterUnit":"m.s-1","parameterCategory":2,"la1":30.2991,"la2":30.254,"lo1":-89.0895,"lo2":-89.0444,"dy":0.0017,"dx":0.0017,"nx":28,"ny":28,"refTime":"2024-12-04T09:00:00:Z","depth":"4","parameterNumber":2,"parameterNumberName":"U-component_of_CURRENTS"},"data":[0,0,0,0,0,0,0,0,0,0,0,0,0,0,0,0,0,0,0,0,0,0,0,0,0,0,0,0,0,0,0,0,0,0,0,0,0,0,0,0,0,0,0,0,0,0,0,0,0,0,0,0,0,0,0,0,0,0,-0.1548,-0.1549,0,-0.1608,-0.1609,-0.1609,-0.1639,-0.1639,-0.164,-0.164,-0.1685,-0.1686,-0.1687,0,0,0,0,0,0,0,0,0,0,0,0,0,-0.146,-0.1461,-0.1548,-0.1549,-0.155,-0.1608,-0.1609,-0.1609,-0.1639,-0.1639,-0.164,-0.164,-0.1684,-0.1686,-0.1687,0,0,0,0,0,0,0,0,0,0,0,0,0,-0.1505,-0.1461,-0.1548,-0.1573,-0.1576,-0.1608,-0.1609,-0.1609,-0.1639,-0.1639,-0.164,-0.164,-0.1684,-0.1685,-0.1687,-0.1692,0,0,-0.1692,-0.1693,0,0,0,0,0,0,0,0,-0.1502,-0.1508,-0.1568,-0.1571,-0.1575,-0.1618,-0.1594,-0.1637,-0.1639,-0.1613,-0.164,-0.164,-0.1662,-0.1665,-0.1674,-0.1694,-0.1696,-0.1692,-0.1693,-0.1694,-0.1694,0,0,0,0,0,0,0,-0.1499,-0.1506,-0.157,-0.1569,-0.1573,-0.1581,-0.1588,-0.1602,-0.1634,-0.1616,-0.1618,-0.1628,-0.1663,-0.1672,-0.1675,-0.1697,-0.1692,-0.1693,-0.1694,-0.1695,-0.1779,-0.178,0,0,0,0,0,0,-0.1495,-0.1503,-0.1568,-0.1572,-0.154,-0.1583,-0.159,-0.1602,-0.1634,-0.164,-0.1627,-0.1629,-0.167,-0.1673,-0.1677,-0.1741,-0.1694,-0.1695,-0.1696,-0.1778,-0.1779,-0.1781,0,0,0,0,0,0,-0.1493,-0.15,-0.1566,-0.154,-0.1549,-0.1584,-0.1598,-0.1604,-0.1637,-0.1644,-0.1649,-0.1658,-0.167,-0.1675,-0.1714,-0.1741,-0.1696,-0.1697,-0.1776,-0.1778,-0.178,-0.1834,0,0,0,0,0,0,-0.149,-0.1499,-0.1519,-0.154,-0.155,-0.1602,-0.1598,-0.1605,-0.1642,-0.1645,-0.1671,-0.1674,-0.167,-0.1712,-0.1716,-0.1742,-0.1698,-0.1774,-0.1777,-0.1779,-0.183,-0.1837,-0.1843,0,0,0,0,0,-0.1487,-0.1509,-0.1519,-0.1528,-0.1572,-0.1603,-0.161,-0.1634,-0.1643,-0.1664,-0.1684,-0.1675,-0.173,-0.1715,-0.1719,-0.1746,-0.1773,-0.1776,-0.1779,-0.1827,-0.1836,-0.1843,0,0,0,0,0,0,-0.1482,-0.1515,-0.1527,-0.1559,-0.1588,-0.1609,-0.1635,-0.165,-0.1682,-0.1693,-0.1694,-0.1699,-0.1742,-0.1739,-0.1722,-0.1777,-0.1749,-0.1753,-0.1784,-0.1792,-0.1798,-0.1794,-0.17,0,0,0,0,0,-0.1489,-0.1516,-0.1545,-0.1573,-0.159,-0.1618,-0.1638,-0.1657,-0.1682,-0.1698,-0.1718,-0.1736,-0.1753,-0.1769,-0.1783,-0.1818,-0.1793,-0.1837,-0.1843,-0.1849,-0.1849,-0.184,-0.1845,-0.179,-0.179,-0.179,0,0,-0.1496,-0.1518,-0.1534,-0.1575,-0.1599,-0.1631,-0.1631,-0.1672,-0.1703,-0.1697,-0.1753,-0.1763,-0.1768,-0.1805,-0.1823,-0.1809,-0.1851,-0.1852,-0.1857,-0.1854,-0.1843,-0.1848,-0.1853,-0.1792,-0.1792,-0.1791,0,0,-0.1512,-0.1543,-0.1568,-0.1597,-0.164,-0.1658,-0.1676,-0.1716,-0.1742,-0.179,-0.1791,-0.1819,-0.1855,-0.186,-0.1865,-0.1916,-0.1885,-0.1926,-0.1958,-0.195,-0.1954,-0.1957,-0.1924,-0.1924,-0.193,-0.193,-0.193,0,-0.1521,-0.1555,-0.1581,-0.1613,-0.1641,-0.1673,-0.1707,-0.1739,-0.1789,-0.181,-0.1817,-0.1867,-0.1876,-0.1906,-0.1927,-0.193,-0.1912,-0.1928,-0.1957,-0.196,-0.1962,-0.1928,-0.1927,-0.1933,-0.1932,-0.1932,-0.1932,0,-0.1547,-0.1587,-0.1606,-0.1656,-0.169,-0.1727,-0.1769,-0.1812,-0.1846,-0.1869,-0.1919,-0.1932,-0.1957,-0.1969,-0.1967,-0.1995,-0.1971,-0.1964,-0.1934,-0.1971,-0.1932,-0.1931,-0.1937,-0.1936,-0.1935,-0.1934,0,0,-0.1526,-0.1609,-0.1617,-0.1649,-0.1717,-0.1742,-0.1804,-0.1855,-0.1888,-0.1939,-0.1973,-0.2013,-0.202,-0.2026,-0.2028,-0.2029,-0.2032,-0.2013,-0.2011,-0.1974,-0.1999,-0.1859,-0.1843,-0.2034,-0.2034,-0.2034,-0.1961,0,-0.1538,-0.1599,-0.1641,-0.1705,-0.1737,-0.1793,-0.1841,-0.1894,-0.1937,-0.1979,-0.2002,-0.2035,-0.2041,-0.2056,-0.2062,-0.2039,-0.2032,-0.2051,-0.1974,-0.1971,-0.1838,-0.1838,-0.2035,-0.196,-0.1959,-0.1959,-0.1959,0,-0.1539,-0.1582,-0.1645,-0.1725,-0.1745,-0.1792,-0.1866,-0.1916,-0.1979,-0.2011,-0.2051,-0.2066,-0.2087,-0.2082,-0.2062,-0.2076,-0.2046,-0.2023,-0.2019,-0.1868,-0.1828,-0.1918,-0.1955,-0.1955,-0.1955,-0.1956,-0.1956,0,-0.1488,-0.158,-0.163,-0.166,-0.1755,-0.1798,-0.1852,-0.1925,-0.1961,-0.2031,-0.205,-0.2084,-0.2088,-0.2075,-0.2037,-0.2055,-0.1989,-0.2001,-0.1843,-0.1832,-0.1957,-0.1955,-0.1978,-0.1979,-0.1979,-0.1979,-0.1979,0,-0.1462,-0.1505,-0.1617,-0.1641,-0.1697,-0.1779,-0.1838,-0.1896,-0.1967,-0.1983,-0.206,-0.2053,-0.2089,-0.2058,-0.2032,-0.1911,-0.198,-0.1835,-0.1802,-0.1981,-0.1982,-0.1955,-0.1953,-0.1976,-0.1977,-0.1977,-0.1978,0,-0.1388,-0.1466,-0.1526,-0.1637,-0.1674,-0.1714,-0.182,-0.1849,-0.1936,-0.1957,-0.1976,-0.2026,-0.1975,-0.1974,-0.1929,-0.1871,-0.1793,-0.1736,-0.1904,-0.1884,-0.1647,-0.1649,-0.1552,-0.1547,-0.1542,-0.1538,-0.1535,0,-0.1351,-0.1377,-0.15,-0.1531,-0.1585,-0.1662,-0.17,-0.1813,-0.1834,-0.1906,-0.1886,-0.1886,-0.1892,-0.17,-0.1736,-0.1654,-0.1641,-0.16,-0.1649,-0.1624,-0.1602,-0.1612,-0.1621,-0.1527,-0.1526,-0.1525,-0.1524,0,-0.1268,-0.1327,-0.1373,-0.1437,-0.1491,-0.154,-0.1606,-0.1605,-0.1705,-0.1803,-0.1728,-0.1692,-0.1624,-0.1582,-0.1522,-0.1477,-0.1631,-0.1551,-0.1561,-0.1607,-0.1592,-0.1578,-0.1592,-0.1507,-0.151,-0.1511,-0.1512,0,-0.1202,-0.1211,-0.1277,-0.1315,-0.138,-0.1381,-0.1441,-0.1447,-0.148,-0.1569,-0.153,-0.1533,-0.1582,-0.1486,-0.1433,-0.1371,-0.1364,-0.1337,-0.1359,-0.1378,-0.1357,-0.1316,-0.1101,0,0,0,0,0,-0.1124,-0.1116,-0.1146,-0.1177,-0.1234,-0.1263,-0.1352,-0.1414,-0.1509,-0.1404,-0.1464,-0.1391,-0.1313,-0.1327,-0.1223,-0.1365,-0.1377,-0.1243,-0.1362,-0.1416,-0.1435,-0.1429,0,0,0,0,0,0,-0.1071,-0.1094,-0.1098,-0.1045,-0.1035,-0.1075,-0.1121,-0.1193,-0.115,-0.1252,-0.1207,-0.1295,-0.1233,-0.1321,-0.1183,-0.1188,-0.1233,-0.1265,-0.1262,-0.1406,-0.1423,-0.1438,-0.1439,0,0,0,0,0]},{"header":{"parameterUnit":"m.s-1","parameterCategory":2,"la1":30.2991,"la2":30.254,"lo1":-89.0895,"lo2":-89.0444,"dy":0.0017,"dx":0.0017,"nx":28,"ny":28,"refTime":"2024-12-04T09:00:00:Z","depth":"4","parameterNumber":3,"parameterNumberName":"V-component_of_CURRENTS"},"data":[0,0,0,0,0,0,0,0,0,0,0,0,0,0,0,0,0,0,0,0,0,0,0,0,0,0,0,0,0,0,0,0,0,0,0,0,0,0,0,0,0,0,0,0,0,0,0,0,0,0,0,0,0,0,0,0,0,0,-0.0228,-0.0228,0,-0.0179,-0.0178,-0.0178,-0.0146,-0.0146,-0.0146,-0.0146,-0.0072,-0.007,-0.0068,0,0,0,0,0,0,0,0,0,0,0,0,0,-0.0259,-0.0259,-0.0228,-0.0228,-0.0227,-0.0179,-0.0178,-0.0178,-0.0146,-0.0146,-0.0146,-0.0146,-0.0073,-0.007,-0.0068,0,0,0,0,0,0,0,0,0,0,0,0,0,-0.0231,-0.0259,-0.0228,-0.0207,-0.0204,-0.0179,-0.0178,-0.0177,-0.0146,-0.0146,-0.0146,-0.0146,-0.0073,-0.0071,-0.0068,-0.0053,0,0,-0.0059,-0.0058,0,0,0,0,0,0,0,0,-0.0232,-0.0229,-0.021,-0.0208,-0.0206,-0.017,-0.0162,-0.0135,-0.0146,-0.0167,-0.0146,-0.0146,-0.0103,-0.0098,-0.0088,-0.0049,-0.0046,-0.0059,-0.0057,-0.0056,-0.0055,0,0,0,0,0,0,0,-0.0234,-0.0231,-0.0208,-0.021,-0.0207,-0.0187,-0.0183,-0.0157,-0.0135,-0.0165,-0.0163,-0.016,-0.0101,-0.009,-0.0086,-0.0045,-0.0059,-0.0056,-0.0055,-0.0053,0.0025,0.0025,0,0,0,0,0,0,-0.0245,-0.0233,-0.0209,-0.0206,-0.022,-0.0187,-0.0182,-0.018,-0.0136,-0.013,-0.016,-0.0158,-0.0095,-0.0089,-0.0083,-0.0058,-0.0056,-0.0053,-0.0052,0.0025,0.0025,0.0025,0,0,0,0,0,0,-0.0246,-0.0243,-0.0211,-0.0219,-0.0214,-0.0187,-0.0185,-0.018,-0.0172,-0.0132,-0.0125,-0.0158,-0.0095,-0.0087,-0.0059,-0.0055,-0.0052,-0.0049,0.0024,0.0025,0.0025,-0.0012,0,0,0,0,0,0,-0.0247,-0.0244,-0.0249,-0.022,-0.0214,-0.0202,-0.0185,-0.0179,-0.017,-0.0168,-0.0128,-0.0121,-0.0094,-0.0063,-0.0056,-0.0051,-0.0047,0.0024,0.0024,0.0025,-0.0011,-0.0013,-0.0014,0,0,0,0,0,-0.0248,-0.0256,-0.025,-0.0247,-0.0221,-0.0203,-0.0198,-0.0177,-0.017,-0.0169,-0.0139,-0.0122,-0.0053,-0.0061,-0.0052,-0.0047,0.0023,0.0024,0.0025,-0.0011,-0.0012,-0.0014,0,0,0,0,0,0,-0.0272,-0.0253,-0.0245,-0.0247,-0.0229,-0.0198,-0.0197,-0.0182,-0.0158,-0.0157,-0.0118,-0.0109,-0.0083,-0.0059,-0.0068,-0.0021,-0.0012,-0.0009,-0.0042,-0.0043,-0.0044,-0.0058,-0.0045,0,0,0,0,0,-0.0281,-0.0283,-0.0258,-0.0261,-0.0254,-0.0227,-0.0219,-0.0205,-0.0178,-0.0168,-0.0139,-0.0105,-0.0072,-0.0055,-0.0025,-0.0001,0.0027,0.001,0.0008,0.0007,0.0003,0.0054,0.0056,0.0028,0.0028,0.0028,0,0,-0.0292,-0.0281,-0.0283,-0.0266,-0.0252,-0.0247,-0.0222,-0.0213,-0.0206,-0.0163,-0.0146,-0.0112,-0.0067,-0.0039,-0.0025,-0.0019,0.0029,0.0008,0.0006,0.0003,0.0055,0.0057,0.006,0.0029,0.0029,0.0029,0,0,-0.0315,-0.0305,-0.0315,-0.0303,-0.0287,-0.0267,-0.0267,-0.0239,-0.0223,-0.0201,-0.0165,-0.0128,-0.0086,-0.0047,-0.0023,-0.0014,0.0017,-0.0006,-0.0021,0.0028,0.0031,0.0033,0.0066,0.0072,-0.0004,-0.0004,-0.0004,0,-0.033,-0.0338,-0.0315,-0.032,-0.0317,-0.0279,-0.0288,-0.0263,-0.0228,-0.0213,-0.0202,-0.0125,-0.0088,-0.0041,-0.0036,-0.0017,0.0008,-0.0021,0.0025,0.0029,0.0032,0.0066,0.0072,-0.0006,-0.0006,-0.0006,-0.0005,0,-0.0358,-0.0366,-0.0371,-0.0365,-0.0355,-0.0357,-0.0322,-0.0307,-0.0283,-0.0253,-0.0209,-0.0151,-0.0105,-0.0083,-0.0056,-0.0013,-0.0004,0.0014,0.0026,0.0032,0.0068,0.0075,-0.0008,-0.0008,-0.0007,-0.0007,0,0,-0.0389,-0.0392,-0.0395,-0.0406,-0.0383,-0.0379,-0.0362,-0.0335,-0.0325,-0.0275,-0.0252,-0.0181,-0.0148,-0.0118,-0.0072,-0.0024,0.0024,-0.0,0.0003,0.0025,0.0121,0.0095,0.0102,0.0048,0.005,0.0051,0.0133,0,-0.042,-0.0452,-0.0436,-0.0458,-0.0472,-0.0434,-0.0424,-0.0391,-0.0352,-0.0318,-0.0242,-0.0204,-0.0161,-0.0139,-0.0083,-0.0002,0.0043,-0.0001,0.0117,0.0121,0.0092,0.011,0.0055,0.0139,0.0141,0.0142,0.0143,0,-0.0451,-0.0471,-0.0507,-0.0515,-0.0517,-0.0521,-0.0499,-0.0482,-0.0416,-0.0384,-0.0322,-0.0264,-0.0181,-0.015,-0.0009,-0.0042,0.003,0.0094,0.01,0.0093,0.011,0.0135,0.0158,0.0157,0.0156,0.0155,0.0154,0,-0.0493,-0.0517,-0.0553,-0.0556,-0.0556,-0.0564,-0.0557,-0.0509,-0.0494,-0.0425,-0.0403,-0.0297,-0.0242,-0.0134,-0.0002,-0.0005,0.0149,0.0164,0.021,0.0208,0.0222,0.0219,0.0257,0.0257,0.0256,0.0256,0.0256,0,-0.053,-0.0558,-0.0582,-0.0603,-0.0642,-0.0619,-0.0636,-0.0607,-0.0561,-0.0538,-0.0445,-0.0397,-0.0235,-0.0125,-0.0013,0.012,0.0143,0.0207,0.0231,0.0204,0.0197,0.0227,0.0223,0.0259,0.0259,0.0258,0.0257,0,-0.0566,-0.0581,-0.0628,-0.0654,-0.0667,-0.0695,-0.07,-0.0701,-0.0652,-0.0617,-0.0597,-0.0462,-0.0317,-0.0161,0.0026,0.01,0.0232,0.0272,0.0221,0.0241,0.026,0.0253,0.0328,0.0328,0.0328,0.0328,0.0328,0,-0.0585,-0.0616,-0.0677,-0.0714,-0.0733,-0.0768,-0.0788,-0.0755,-0.0742,-0.0651,-0.0631,-0.0491,-0.0388,-0.0139,0.0016,0.022,0.0246,0.0299,0.0289,0.0253,0.0269,0.0262,0.0255,0.0328,0.0328,0.0328,0.0328,0,-0.0621,-0.0649,-0.0689,-0.0771,-0.0815,-0.0851,-0.0869,-0.0866,-0.0807,-0.0769,-0.064,-0.0499,-0.0337,-0.0139,0.0016,0.0162,0.0257,0.0298,0.03,0.029,0.0254,0.0268,0.0261,0.0327,0.0327,0.0327,0.0327,0,-0.0645,-0.0686,-0.0746,-0.081,-0.0874,-0.0907,-0.0914,-0.0877,-0.085,-0.0736,-0.0693,-0.0503,-0.038,-0.0168,-0.0023,0.0114,0.0146,0.0177,0.0185,0.0187,0.0118,0.0049,0.0082,0,0,0,0,0,-0.0662,-0.0709,-0.0778,-0.0847,-0.0909,-0.0936,-0.0951,-0.0938,-0.0885,-0.0798,-0.0737,-0.0577,-0.0335,-0.0223,-0.0089,-0.0048,0.0146,0.0109,0.018,0.0325,0.0325,0.0265,0,0,0,0,0,0,-0.0674,-0.0744,-0.0778,-0.0858,-0.0905,-0.096,-0.0968,-0.0934,-0.0869,-0.0795,-0.0658,-0.0566,-0.0327,-0.0407,-0.009,-0.0048,0.0008,0.0232,0.0234,0.0325,0.0325,0.0325,0.0264,0,0,0,0,0]}]]